Philip, SD

11:01 PM MST on November 18, 2017 (GMT -0700)
Philip

Weather History for KPHP - May, 2013

Change the Weather History Date:

Thursday, May 9, 2013

  Actual Average Record
Temperature  
Mean Temperature 56 °F 55 °F  
Max Temperature 70 °F 68 °F 93 °F (1962)
Min Temperature 41 °F 41 °F 27 °F (1966)
Degree Days  
Heating Degree Days 9 11  
Month to date heating degree days 159 108  
Since 1 July heating degree days 6909 6975  
Cooling Degree Days 0 1  
Month to date cooling degree days 0 4  
Year to date cooling degree days 0 7  
Growing Degree Days 6 (Base 50)    
Moisture  
Dew Point 39 °F    
Average Humidity 62    
Maximum Humidity 89    
Minimum Humidity 35    
Precipitation  
Precipitation 0.00 in 0.11 in 1.40 in (2015)
Month to date precipitation 0.02 0.88  
Year to date precipitation 3.20 4.77  
Sea Level Pressure  
Sea Level Pressure 30.11 in    
Wind  
Wind Speed 8 mph (NNE)    
Max Wind Speed 16 mph    
Max Gust Speed 23 mph    
Visibility 10 miles    
Events      
T = Trace of Precipitation, MM = Missing Value Source: NWS Daily Summary

Daily Weather History Graph

Daily Weather History Graph

Search for Another Location

Airport or City:

Trip Planner

Search our weather history database for the weather conditions in past years. The results will help you decide how hot, cold, wet, or windy it might be!

Date:

Astronomy

May. 09, 2013 Rise Set
Actual Time 5:26 AM MDT 7:59 PM MDT
Civil Twilight 4:54 AM MDT 8:32 PM MDT
Nautical Twilight 4:13 AM MDT 9:13 PM MDT
Astronomical Twilight 3:26 AM MDT 10:00 PM MDT
Moon 5:13 AM MDT (5/9) 7:56 PM MDT (5/9)
Length of Visible Light 15h 38m
Length of Day
14h 32m
Waning Crescent, 0% of the Moon is Illuminated
May 9
Waning Crescent
May 9
New
May 17
First Quarter
May 24
Full
May 31
Last Quarter

Hourly Weather History & Observations

Time (MDT) Temp. Windchill Dew Point Humidity Pressure Visibility Wind Dir Wind Speed Gust Speed Precip Events Conditions
12:55 AM 48.0 °F - 43.0 °F 83% 30.05 in 10.0 mi North 3.5 mph - N/A   Clear
1:55 AM 46.9 °F - 43.0 °F 86% 30.06 in 10.0 mi North 8.1 mph - N/A   Clear
2:55 AM 46.0 °F 42.5 °F 42.1 °F 86% 30.08 in 10.0 mi ENE 6.9 mph - N/A   Clear
3:55 AM 44.1 °F 40.1 °F 41.0 °F 89% 30.10 in 10.0 mi NNE 6.9 mph - N/A   Clear
4:55 AM 44.1 °F 42.5 °F 39.9 °F 85% 30.12 in 10.0 mi North 3.5 mph - N/A   Clear
5:55 AM 45.0 °F 41.2 °F 39.9 °F 82% 30.13 in 10.0 mi North 6.9 mph - N/A   Partly Cloudy
6:55 AM 46.0 °F 40.6 °F 37.0 °F 71% 30.14 in 10.0 mi North 11.5 mph - N/A   Scattered Clouds
7:55 AM 48.9 °F - 35.1 °F 59% 30.16 in 10.0 mi NNE 10.4 mph - N/A   Mostly Cloudy
8:55 AM 52.0 °F - 36.0 °F 54% 30.16 in 10.0 mi NNE 8.1 mph - N/A   Partly Cloudy
9:55 AM 57.0 °F - 39.0 °F 51% 30.16 in 10.0 mi North 6.9 mph - N/A   Scattered Clouds
10:55 AM 61.0 °F - 41.0 °F 48% 30.15 in 10.0 mi NNE 11.5 mph - N/A   Clear
11:55 AM 66.0 °F - 43.0 °F 43% 30.13 in 10.0 mi NNE 12.7 mph - N/A   Scattered Clouds
12:55 PM 64.9 °F - 42.1 °F 43% 30.13 in 10.0 mi NE 11.5 mph 19.6 mph N/A   Mostly Cloudy
1:55 PM 68.0 °F - 42.1 °F 39% 30.12 in 10.0 mi North 13.8 mph - N/A   Mostly Cloudy
2:55 PM 69.1 °F - 42.1 °F 38% 30.10 in 10.0 mi NNE 13.8 mph - N/A   Clear
3:55 PM 69.1 °F - 41.0 °F 36% 30.08 in 10.0 mi NNE 12.7 mph 18.4 mph N/A   Clear
4:55 PM 68.0 °F - 39.9 °F 36% 30.08 in 10.0 mi NNE 12.7 mph - N/A   Overcast
5:55 PM 66.0 °F - 39.9 °F 38% 30.07 in 10.0 mi NE 11.5 mph - N/A   Overcast
6:55 PM 64.9 °F - 39.0 °F 39% 30.09 in 10.0 mi NE 6.9 mph - N/A   Overcast
7:55 PM 59.0 °F - 39.0 °F 48% 30.10 in 10.0 mi ENE 6.9 mph - N/A   Mostly Cloudy
8:55 PM 54.0 °F - 37.0 °F 53% 30.12 in 10.0 mi ENE 8.1 mph - N/A   Partly Cloudy
9:55 PM 51.1 °F - 36.0 °F 56% 30.13 in 10.0 mi ENE 4.6 mph - N/A   Mostly Cloudy
10:55 PM 53.1 °F - 36.0 °F 52% 30.14 in 10.0 mi Calm Calm - N/A   Overcast
11:55 PM 48.0 °F - 30.9 °F 52% 30.14 in 10.0 mi ENE 3.5 mph - N/A   Clear